TimeEDT,TemperatureF,Dew PointF,Humidity,Sea Level PressureIn,VisibilityMPH,Wind Direction,Wind SpeedMPH,Gust SpeedMPH,PrecipitationIn,Events,Conditions,WindDirDegrees,DateUTC
12:54 AM,61.0,59.0,93,29.83,10.0,ESE,9.2,-,0.01,,Overcast,120,2013-06-28 04:54:00
1:35 AM,60.8,57.2,88,29.81,10.0,East,4.6,-,0.00,Rain,Light Rain,90,2013-06-28 05:35:00
1:54 AM,61.0,59.0,93,29.80,10.0,NE,5.8,-,0.00,Rain,Light Rain,40,2013-06-28 05:54:00
2:54 AM,59.0,57.9,96,29.79,10.0,East,6.9,-,0.00,Rain,Light Rain,100,2013-06-28 06:54:00
3:47 AM,57.2,57.2,100,29.77,10.0,East,8.1,-,0.04,Rain,Light Rain,90,2013-06-28 07:47:00
3:54 AM,57.9,57.0,97,29.77,10.0,East,8.1,-,0.05,Rain,Light Rain,100,2013-06-28 07:54:00
4:52 AM,57.2,57.2,100,29.73,10.0,NE,9.2,-,0.05,Rain,Light Rain,50,2013-06-28 08:52:00
4:54 AM,57.9,57.0,97,29.73,10.0,NE,5.8,-,0.05,Rain,Light Rain,40,2013-06-28 08:54:00
5:12 AM,57.2,57.2,100,29.72,10.0,NE,6.9,-,0.00,Rain,Light Rain,40,2013-06-28 09:12:00
5:54 AM,57.9,57.0,97,29.71,7.0,NE,4.6,-,0.20,Rain,Heavy Rain,50,2013-06-28 09:54:00
6:11 AM,57.2,57.2,100,29.70,10.0,ENE,4.6,-,0.04,Rain,Light Rain,60,2013-06-28 10:11:00
6:41 AM,57.2,55.4,94,29.71,10.0,Calm,Calm,-,0.15,Rain,Light Rain,0,2013-06-28 10:41:00
6:54 AM,57.9,57.0,97,29.70,10.0,ENE,4.6,-,0.16,Rain,Light Rain,60,2013-06-28 10:54:00
7:29 AM,57.2,57.2,100,29.70,10.0,ENE,3.5,-,0.01,Rain,Light Rain,60,2013-06-28 11:29:00
7:54 AM,57.9,57.0,97,29.70,6.0,ENE,5.8,-,0.03,Rain,Light Rain,60,2013-06-28 11:54:00
8:07 AM,57.2,57.2,100,29.69,5.0,ENE,4.6,-,0.01,Rain,Light Rain,70,2013-06-28 12:07:00
8:16 AM,57.2,57.2,100,29.69,5.0,ENE,4.6,-,0.02,Rain,Light Rain,60,2013-06-28 12:16:00
8:54 AM,59.0,57.9,96,29.67,6.0,NE,4.6,-,0.02,Rain,Light Rain,40,2013-06-28 12:54:00
9:54 AM,59.0,57.9,96,29.64,5.0,NNE,4.6,-,0.03,Rain,Light Rain,30,2013-06-28 13:54:00
10:54 AM,59.0,57.9,96,29.62,5.0,Calm,Calm,-,0.02,Rain,Light Rain,0,2013-06-28 14:54:00
11:54 AM,60.1,59.0,96,29.61,8.0,NE,5.8,-,0.11,Rain,Light Rain,40,2013-06-28 15:54:00
12:28 PM,60.8,59.0,94,29.60,5.0,NNE,5.8,-,0.01,Rain,Light Rain,30,2013-06-28 16:28:00
12:38 PM,60.8,60.8,100,29.60,6.0,Variable,3.5,-,0.01,Rain,Light Rain,0,2013-06-28 16:38:00
12:54 PM,61.0,60.1,97,29.60,10.0,NNE,6.9,-,0.02,Rain,Light Rain,20,2013-06-28 16:54:00
1:03 PM,62.6,60.8,94,29.59,10.0,Variable,3.5,-,0.00,,Overcast,0,2013-06-28 17:03:00
1:14 PM,62.6,60.8,94,29.59,7.0,Variable,5.8,-,0.00,Rain,Light Rain,0,2013-06-28 17:14:00
1:54 PM,62.1,60.1,93,29.59,9.0,NNE,5.8,-,0.00,Rain,Light Rain,20,2013-06-28 17:54:00
2:09 PM,62.6,60.8,94,29.58,9.0,Variable,3.5,-,0.01,Rain,Light Rain,0,2013-06-28 18:09:00
2:18 PM,62.6,60.8,94,29.58,10.0,Variable,4.6,-,0.01,Rain,Light Rain,0,2013-06-28 18:18:00
2:49 PM,62.6,60.8,94,29.58,10.0,North,3.5,-,0.02,Rain,Light Rain,360,2013-06-28 18:49:00
2:54 PM,62.1,60.1,93,29.58,7.0,North,5.8,-,0.02,Rain,Light Rain,350,2013-06-28 18:54:00
3:19 PM,60.8,60.8,100,29.58,4.0,North,3.5,-,0.12,Rain,Heavy Rain,10,2013-06-28 19:19:00
3:32 PM,62.6,60.8,94,29.57,10.0,Variable,3.5,-,0.13,Rain,Light Rain,0,2013-06-28 19:32:00
3:43 PM,62.6,60.8,94,29.57,10.0,North,4.6,-,0.13,Rain,Light Rain,360,2013-06-28 19:43:00
3:54 PM,63.0,61.0,93,29.57,10.0,NNE,3.5,-,0.13,,Overcast,20,2013-06-28 19:54:00
4:54 PM,64.0,62.1,93,29.57,10.0,Variable,3.5,-,N/A,,Overcast,0,2013-06-28 20:54:00
5:54 PM,64.9,62.1,90,29.57,10.0,Variable,3.5,-,0.00,,Overcast,0,2013-06-28 21:54:00
6:54 PM,63.0,61.0,93,29.57,10.0,NNE,5.8,-,N/A,,Overcast,30,2013-06-28 22:54:00
7:54 PM,63.0,62.1,97,29.56,10.0,NNE,3.5,-,N/A,,Overcast,30,2013-06-28 23:54:00
8:44 PM,62.6,60.8,94,29.57,7.0,North,3.5,-,0.00,Rain-Thunderstorm,Light Rain,350,2013-06-29 00:44:00
8:54 PM,63.0,62.1,97,29.57,6.0,North,4.6,-,0.02,Rain-Thunderstorm,Rain,10,2013-06-29 00:54:00
9:09 PM,62.6,62.6,100,29.57,8.0,NNW,4.6,-,0.04,Rain-Thunderstorm,Rain,340,2013-06-29 01:09:00
9:22 PM,62.6,62.6,100,29.58,10.0,Calm,Calm,-,0.05,Rain,Light Rain,0,2013-06-29 01:22:00
9:54 PM,63.0,62.1,97,29.60,10.0,Calm,Calm,-,0.06,,Overcast,0,2013-06-29 01:54:00
10:54 PM,63.0,61.0,93,29.58,10.0,Calm,Calm,-,0.00,Rain,Light Rain,0,2013-06-29 02:54:00
11:54 PM,63.0,62.1,97,29.59,10.0,Calm,Calm,-,0.04,,Overcast,0,2013-06-29 03:54:00